Dewpoint
68 69 69 69 69 69 69 68 68 68 68 68 69 69 69 68 67 67 68 68 68 68 68 67 66 65 64 63 62 62 61 58
68 68 69 69 69 68 68 68 68 68 68 68 68 68 68 68 67 67 67 67 68 68 68 67 66 65 64 63 62 62 60 58
67 68 68 68 68 69 68 68 67 67 67 67 67 68 68 68 67 67 67 67 67 67 67 67 66 64 63 62 62 61 58 57
64 66 67 68 68 68 68 68 68 67 67 67 67 67 67 67 67 67 66 66 66 66 67 66 66 64 62 62 61 60 58 57
61 63 65 66 66 68 67 67 67 67 66 66 66 66 66 66 66 66 66 66 65 66 66 66 64 63 61 59 58 57 57 57
57 60 63 65 65 67 66 66 67 66 66 66 65 65 65 64 64 63 63 63 63 64 64 63 62 62 60 58 57 56 56 56
59 58 60 62 63 64 65 65 66 65 65 65 65 64 64 63 63 62 61 62 62 62 62 62 61 60 60 59 57 56 55 55
61 59 58 59 60 61 62 63 64 64 64 64 64 63 63 62 62 61 61 61 61 61 61 61 60 59 58 58 57 56 55 55
62 62 60 59 58 58 60 60 61 62 62 62 63 63 62 61 60 60 60 61 61 61 61 60 59 59 58 57 57 56 56 56
63 63 62 61 59 58 59 60 60 60 60 61 62 62 62 61 60 60 61 61 61 60 60 60 59 59 58 58 58 58 57 57
61 64 63 62 61 60 59 60 62 61 61 61 61 61 62 61 61 60 61 62 62 61 61 60 60 59 59 59 59 59 59 59
60 63 64 63 63 62 61 62 63 63 63 63 63 62 62 62 62 62 62 62 63 62 62 62 61 61 60 60 60 61 61 61
56 61 63 64 63 62 62 62 64 64 64 64 64 64 63 63 63 63 64 63 63 63 62 62 61 62 61 61 61 61 61 61
50 58 62 64 63 63 63 63 64 66 66 65 65 65 64 64 63 63 64 63 64 64 63 63 62 62 61 60 59 59 60 61
44 55 60 63 63 64 65 64 66 65 65 66 65 65 66 65 65 64 64 64 64 64 63 63 62 63 63 61 58 56 54 58
44 54 60 62 64 65 65 64 63 64 65 65 65 66 66 67 66 66 65 65 65 64 64 64 63 62 63 63 63 61 58 56
53 56 59 63 64 65 65 64 65 65 65 65 65 65 65 65 66 66 66 66 66 66 65 65 64 64 63 63 62 62 62 60
57 58 61 64 65 66 65 64 64 64 64 64 64 64 65 66 65 66 66 66 66 66 66 65 65 65 64 64 63 62 61 61
48 60 61 64 65 65 65 65 64 63 63 64 66 66 65 65 66 66 65 65 65 66 66 66 65 65 65 65 65 64 64 62
55 57 62 64 65 65 65 64 64 64 65 64 63 62 62 62 62 62 60 58 59 60 61 62 62 64 65 65 64 64 64 63
Wind_Speed
20 18 20 20 20 14 16 17 16 17 17 16 14 13 12 12 11 11 11 10 10 10 10 10 10 10 11 11 11 10 6 6
19 20 17 16 18 22 19 17 18 17 16 18 18 17 16 15 14 13 13 13 12 13 13 13 13 12 12 13 14 14 9 9
16 20 21 19 17 18 22 22 21 21 19 18 17 13 15 16 17 18 18 17 16 16 15 15 14 14 15 14 15 14 12 11
19 18 20 20 18 17 18 18 17 17 17 18 16 15 15 14 15 18 17 17 17 17 17 17 16 13 14 14 13 15 14 14
24 22 19 19 17 17 16 15 15 16 18 18 16 15 14 14 13 13 13 15 13 14 15 14 14 14 15 15 16 15 14 14
26 24 22 19 15 16 16 18 18 17 19 19 17 15 15 15 14 14 13 11 13 14 13 14 16 16 16 16 16 16 14 14
27 26 26 26 23 19 17 18 17 17 16 17 16 16 15 13 14 13 15 12 14 14 14 14 15 15 15 16 17 18 18 14
25 29 28 25 29 27 25 22 21 18 17 18 19 16 15 15 14 15 15 15 14 14 15 15 16 13 15 16 17 16 17 17
29 28 22 25 26 22 19 18 18 20 20 21 23 22 19 18 16 15 16 14 16 14 14 13 14 13 16 14 14 18 18 18
30 26 27 25 26 24 23 19 19 19 18 17 21 22 21 18 16 16 14 15 15 14 13 15 15 15 17 15 15 15 18 20
28 29 30 33 26 21 21 21 20 18 16 17 18 20 20 19 16 16 14 14 14 14 14 15 15 17 18 17 17 17 19 19
29 27 32 30 21 18 16 16 18 17 17 17 15 16 17 17 15 15 14 13 13 14 19 16 18 18 17 18 17 18 20 20
29 28 29 23 25 24 22 27 19 19 17 17 16 18 18 18 16 14 14 17 19 17 17 17 17 14 14 18 18 18 20 20
32 33 30 30 27 28 21 20 17 14 14 14 17 19 19 19 18 16 16 18 18 18 20 18 18 13 13 2 10 14 23 21
31 32 33 31 30 20 11 12 7 14 15 17 20 18 18 19 18 18 18 19 20 19 18 21 23 11 15 13 7 17 13 4
22 24 28 26 25 23 28 25 19 19 18 14 10 14 15 18 19 20 20 17 19 19 15 19 16 23 9 18 23 13 15 24
18 19 20 20 25 23 22 19 13 10 10 12 12 11 13 16 15 13 15 14 15 18 18 17 17 21 19 17 15 16 20 21
14 21 22 22 23 21 24 20 19 14 11 9 6 7 5 7 10 12 13 11 13 14 13 14 15 16 17 18 18 15 17 18
11 14 16 19 22 20 21 19 18 16 11 8 10 10 8 9 9 8 7 5 6 8 12 13 14 15 17 17 16 16 16 19
9 10 12 15 16 16 15 15 13 12 15 15 15 13 11 10 13 14 16 17 17 15 13 14 16 13 14 15 14 14 15 16
Wind_Direction
169 183 181 180 180 199 194 187 191 185 182 179 181 184 188 191 193 197 203 211 213 215 222 235 247 258 268 279 283 286 280 263
177 176 185 186 187 187 196 199 196 195 194 191 189 190 194 198 202 206 209 215 219 224 227 231 239 249 260 271 281 287 280 272
186 183 182 187 191 195 193 197 201 200 199 199 200 201 202 204 207 208 211 215 218 221 226 234 242 250 254 258 267 271 275 268
192 192 187 183 187 190 195 198 199 200 198 199 200 205 209 211 217 219 221 224 224 225 228 232 237 241 251 257 257 263 266 264
195 192 193 189 194 186 194 199 198 200 203 203 203 203 209 216 221 226 226 231 231 233 236 235 235 238 244 247 251 257 259 261
199 192 188 195 193 197 196 195 199 201 204 202 198 205 209 214 216 222 225 227 231 231 235 237 238 239 241 250 254 254 256 255
206 195 195 190 192 193 200 204 206 206 203 204 200 205 212 213 221 218 220 218 226 234 237 244 245 245 246 242 247 252 253 253
211 207 198 194 196 195 197 198 200 202 203 204 204 208 210 212 218 222 226 218 219 224 231 236 246 247 253 249 251 253 254 251
208 207 206 201 202 203 206 207 208 208 208 202 202 204 207 210 215 221 223 217 222 222 231 233 245 248 254 253 247 252 254 252
209 203 203 208 207 202 201 203 202 213 213 209 209 207 208 210 215 221 217 210 216 222 227 236 242 245 253 253 248 245 251 255
208 201 203 207 209 206 206 203 204 211 210 210 209 210 209 210 216 223 210 210 214 220 226 225 238 241 249 253 250 250 249 250
212 203 208 205 198 202 204 210 209 204 206 213 209 207 210 211 219 220 209 210 218 217 230 225 233 241 242 246 245 243 244 244
216 208 210 192 193 195 200 211 209 209 207 208 203 202 203 209 219 223 214 222 224 219 230 235 242 231 249 264 263 252 246 238
219 212 205 197 198 204 206 208 209 204 205 201 202 204 206 210 215 223 217 227 231 228 229 245 252 219 237 251 290 298 256 234
210 209 204 201 200 190 176 169 151 187 198 203 206 204 204 205 210 218 223 222 233 228 226 232 255 245 210 222 246 247 296 232
209 206 201 201 189 186 188 193 198 208 207 212 205 200 204 208 211 214 222 225 234 234 229 227 233 260 232 225 244 270 290 293
202 194 188 183 186 189 188 194 193 163 170 191 210 215 224 231 227 230 234 235 241 244 244 232 228 244 253 256 237 242 248 257
191 188 185 175 178 181 184 183 171 159 169 197 223 258 261 267 254 243 245 245 249 255 255 250 245 241 252 260 263 268 273 270
195 196 184 175 176 173 178 175 173 178 171 170 145 109 86 60 58 47 36 12 346 311 285 275 265 257 260 260 264 264 266 273
164 174 170 162 160 157 147 144 137 132 118 108 103 104 92 73 68 57 45 35 29 15 14 5 351 328 296 282 289 289 281 276